Meteo pe oră la Abaújszántó

Astăzi, 3 August, Marţi

Timp Temperatura Precipitaţii Vânt Presiune Umiditate
00:00 +16°C° 0 mm 1 m/s 743 mmHg 72%
01:00 +16°C° 0 mm 1 m/s 743 mmHg 77%
02:00 +15°C° 0 mm 1 m/s 743 mmHg 79%
03:00 +15°C° 0 mm 1 m/s 743 mmHg 82%
04:00 +15°C° 0 mm 1 m/s 743 mmHg 84%
05:00 +16°C° 0 mm 1 m/s 743 mmHg 77%
06:00 +19°C° 0 mm 1 m/s 743 mmHg 70%
07:00 +21°C° 0 mm 1 m/s 744 mmHg 64%
08:00 +23°C° 0 mm 1 m/s 744 mmHg 57%
09:00 +25°C° 0 mm 1 m/s 744 mmHg 50%
10:00 +26°C° 0 mm 1 m/s 744 mmHg 43%
11:00 +27°C° 0 mm 1 m/s 744 mmHg 38%
12:00 +28°C° 0 mm 2 m/s 743 mmHg 34%
13:00 +29°C° 0 mm 2 m/s 743 mmHg 30%
14:00 +29°C° 0 mm 2 m/s 742 mmHg 31%
15:00 +28°C° 0 mm 2 m/s 742 mmHg 32%
16:00 +28°C° 0 mm 2 m/s 742 mmHg 33%
17:00 +26°C° 0 mm 2 m/s 742 mmHg 39%
18:00 +25°C° 0 mm 2 m/s 742 mmHg 45%
19:00 +23°C° 0 mm 1 m/s 742 mmHg 51%
20:00 +22°C° 0 mm 1 m/s 742 mmHg 52%
21:00 +21°C° 0 mm 1 m/s 742 mmHg 53%
22:00 +21°C° 0 mm 1 m/s 742 mmHg 55%
23:00 +20°C° 0 mm 1 m/s 742 mmHg 57%

Mâine, 4 August, Miercuri

Timp Temperatura Precipitaţii Vânt Presiune Umiditate
00:00 +20°C° 0 mm 1 m/s 742 mmHg 59%
01:00 +19°C° 0 mm 1 m/s 742 mmHg 60%
02:00 +19°C° 0 mm 1 m/s 742 mmHg 63%
03:00 +19°C° 0 mm 1 m/s 742 mmHg 65%
04:00 +19°C° 0 mm 1 m/s 742 mmHg 67%
05:00 +19°C° 0 mm 1 m/s 742 mmHg 65%
06:00 +20°C° 0 mm 1 m/s 742 mmHg 63%
07:00 +21°C° 0 mm 1 m/s 742 mmHg 61%
08:00 +23°C° 0 mm 2 m/s 742 mmHg 53%
09:00 +26°C° 0 mm 3 m/s 742 mmHg 45%
10:00 +28°C° 0 mm 3 m/s 742 mmHg 37%
11:00 +29°C° 0 mm 4 m/s 741 mmHg 34%
12:00 +32°C° 0 mm 4 m/s 741 mmHg 30%
13:00 +33°C° 0 mm 5 m/s 740 mmHg 27%
14:00 +33°C° 0 mm 5 m/s 740 mmHg 28%
15:00 +32°C° 0 mm 5 m/s 740 mmHg 28%
16:00 +32°C° 0 mm 5 m/s 740 mmHg 29%
17:00 +29°C° 0 mm 4 m/s 740 mmHg 35%
18:00 +27°C° 0 mm 3 m/s 740 mmHg 41%
19:00 +26°C° 0 mm 2 m/s 740 mmHg 47%
20:00 +25°C° 0 mm 2 m/s 739 mmHg 49%
21:00 +25°C° 0 mm 2 m/s 739 mmHg 51%
22:00 +24°C° 0 mm 2 m/s 739 mmHg 53%
23:00 +23°C° 0 mm 2 m/s 739 mmHg 57%

Poimâine, 5 August, Joi

Timp Temperatura Precipitaţii Vânt Presiune Umiditate
00:00 +22°C° 0 mm 1 m/s 739 mmHg 61%
01:00 +22°C° 0 mm 1 m/s 739 mmHg 65%
02:00 +21°C° 0 mm 1 m/s 739 mmHg 67%
03:00 +20°C° 0 mm 2 m/s 738 mmHg 69%
04:00 +20°C° 0 mm 2 m/s 738 mmHg 71%
05:00 +21°C° 0 mm 2 m/s 738 mmHg 67%
06:00 +23°C° 0 mm 2 m/s 737 mmHg 62%
07:00 +24°C° 0 mm 3 m/s 737 mmHg 58%
08:00 +25°C° 0 mm 3 m/s 737 mmHg 53%
09:00 +27°C° 0 mm 2 m/s 737 mmHg 48%
10:00 +28°C° 0 mm 2 m/s 737 mmHg 43%
11:00 +28°C° 0.1 mm 2 m/s 736 mmHg 43%
12:00 +29°C° 0.1 mm 3 m/s 735 mmHg 43%
13:00 +29°C° 0.1 mm 3 m/s 735 mmHg 42%
14:00 +27°C° 0.6 mm 4 m/s 734 mmHg 53%
15:00 +25°C° 0.6 mm 4 m/s 734 mmHg 64%
16:00 +22°C° 0.6 mm 5 m/s 734 mmHg 74%
17:00 +21°C° 0.4 mm 4 m/s 734 mmHg 79%
18:00 +20°C° 0.4 mm 3 m/s 734 mmHg 84%
19:00 +19°C° 0.4 mm 2 m/s 734 mmHg 89%
20:00 +19°C° 0.1 mm 1 m/s 734 mmHg 90%
21:00 +19°C° 0.1 mm 1 m/s 734 mmHg 91%
22:00 +18°C° 0.1 mm 1 m/s 735 mmHg 92%
23:00 +18°C° 0.1 mm 1 m/s 735 mmHg 93%

6 August, Vineri

Timp Temperatura Precipitaţii Vânt Presiune Umiditate
00:00 +18°C° 0.1 mm 1 m/s 734 mmHg 93%
01:00 +16°C° 0.1 mm 1 m/s 734 mmHg 94%
02:00 +16°C° 0.1 mm 1 m/s 734 mmHg 94%
03:00 +15°C° 0.1 mm 0 m/s 735 mmHg 95%
04:00 +15°C° 0.1 mm 0 m/s 735 mmHg 95%
05:00 +16°C° 0.2 mm 1 m/s 735 mmHg 93%
06:00 +18°C° 0.2 mm 1 m/s 735 mmHg 92%
07:00 +18°C° 0.2 mm 1 m/s 735 mmHg 90%
08:00 +19°C° 0.2 mm 1 m/s 735 mmHg 88%
09:00 +19°C° 0.2 mm 1 m/s 736 mmHg 86%
10:00 +19°C° 0.2 mm 2 m/s 736 mmHg 84%
11:00 +19°C° 0.3 mm 2 m/s 736 mmHg 79%
12:00 +20°C° 0.3 mm 2 m/s 736 mmHg 73%
13:00 +21°C° 0.3 mm 2 m/s 737 mmHg 68%
14:00 +23°C° 0.2 mm 2 m/s 737 mmHg 64%
15:00 +23°C° 0.2 mm 2 m/s 737 mmHg 61%
16:00 +24°C° 0.2 mm 2 m/s 737 mmHg 57%
17:00 +21°C° 0.3 mm 2 m/s 737 mmHg 64%
18:00 +20°C° 0.3 mm 2 m/s 737 mmHg 70%
19:00 +19°C° 0.3 mm 2 m/s 737 mmHg 76%
20:00 +18°C° 0 mm 2 m/s 738 mmHg 80%
21:00 +18°C° 0 mm 1 m/s 738 mmHg 83%
22:00 +16°C° 0 mm 1 m/s 738 mmHg 86%
23:00 +16°C° 0 mm 1 m/s 739 mmHg 88%

7 August, Sâmbătă

Timp Temperatura Precipitaţii Vânt Presiune Umiditate
00:00 +15°C° 0 mm 1 m/s 739 mmHg 89%
01:00 +15°C° 0 mm 1 m/s 739 mmHg 90%
02:00 +15°C° 0 mm 1 m/s 739 mmHg 91%
03:00 +14°C° 0 mm 1 m/s 739 mmHg 91%
04:00 +13°C° 0 mm 0 m/s 739 mmHg 91%
05:00 +15°C° 0 mm 0 m/s 740 mmHg 86%
06:00 +16°C° 0 mm 0 m/s 740 mmHg 81%
07:00 +18°C° 0 mm 0 m/s 741 mmHg 75%
08:00 +21°C° 0 mm 1 m/s 741 mmHg 67%
09:00 +23°C° 0 mm 1 m/s 741 mmHg 59%
10:00 +25°C° 0 mm 1 m/s 741 mmHg 51%
11:00 +26°C° 0 mm 2 m/s 741 mmHg 47%
12:00 +28°C° 0 mm 2 m/s 741 mmHg 42%
13:00 +29°C° 0 mm 2 m/s 740 mmHg 38%
14:00 +29°C° 0 mm 2 m/s 740 mmHg 37%
15:00 +29°C° 0 mm 2 m/s 740 mmHg 36%
16:00 +30°C° 0 mm 2 m/s 740 mmHg 34%
17:00 +28°C° 0 mm 2 m/s 740 mmHg 40%
18:00 +26°C° 0 mm 1 m/s 740 mmHg 46%
19:00 +24°C° 0 mm 1 m/s 740 mmHg 52%
20:00 +23°C° 0 mm 1 m/s 741 mmHg 54%
21:00 +22°C° 0 mm 1 m/s 741 mmHg 56%
22:00 +21°C° 0 mm 1 m/s 741 mmHg 58%
23:00 +21°C° 0 mm 1 m/s 741 mmHg 60%

8 August, Duminică

Timp Temperatura Precipitaţii Vânt Presiune Umiditate
00:00 +20°C° 0 mm 1 m/s 741 mmHg 61%
01:00 +20°C° 0 mm 1 m/s 742 mmHg 63%
02:00 +19°C° 0 mm 1 m/s 742 mmHg 64%
03:00 +19°C° 0 mm 1 m/s 742 mmHg 65%
04:00 +18°C° 0 mm 1 m/s 742 mmHg 66%
05:00 +20°C° 0 mm 1 m/s 743 mmHg 61%
06:00 +22°C° 0 mm 1 m/s 743 mmHg 55%
07:00 +23°C° 0 mm 1 m/s 743 mmHg 50%
08:00 +25°C° 0 mm 2 m/s 743 mmHg 45%
09:00 +27°C° 0 mm 2 m/s 743 mmHg 40%
10:00 +29°C° 0 mm 2 m/s 743 mmHg 35%
11:00 +31°C° 0 mm 2 m/s 743 mmHg 30%
12:00 +34°C° 0 mm 3 m/s 743 mmHg 26%
13:00 +36°C° 0 mm 3 m/s 743 mmHg 22%
14:00 +37°C° 0 mm 3 m/s 742 mmHg 21%
15:00 +37°C° 0 mm 3 m/s 742 mmHg 21%
16:00 +38°C° 0 mm 3 m/s 742 mmHg 20%
17:00 +35°C° 0 mm 3 m/s 742 mmHg 26%
18:00 +32°C° 0 mm 2 m/s 742 mmHg 32%
19:00 +29°C° 0 mm 2 m/s 742 mmHg 38%
20:00 +28°C° 0 mm 2 m/s 742 mmHg 43%
21:00 +26°C° 0 mm 2 m/s 743 mmHg 47%
22:00 +25°C° 0 mm 2 m/s 743 mmHg 51%
23:00 +24°C° 0 mm 2 m/s 743 mmHg 55%
Arată mai mult

Formular de consimțământ

Meteoprog și furnizorii noștri de servicii pot stoca și accesa date personale, precum cookies, identificatori de dispozitiv sau alte tehnologii similare pe dispozitivul dumneavoastră și procesa astfel de date pentru a personaliza conținutul și reclamele, dar și pentru a oferi caracteristici de social media și pentru a analiza traficul.

  • Stocarea și/sau accesarea informațiilor pe dispozitivul dumneavoastră

    Cookies, identificatori de dispozitiv sau alte informații pot fi stocate sau accesate pe dispozitiv în scopurile indicate mai sus.

  • Reclame și conținut personalizat, evaluarea reclamelor și a conținutului, informații despre audiențe și dezvoltarea produselor

    Reclamele și conținutul pot fi personalizate pe baza unui profil. Pot fi adăugate date suplimentare pentru a personaliza mai bine reclamele și conținutul. Performanța reclamelor și conținutului poate fi măsurată. Pot fi obținute informații despre utilizatorii care au văzut reclamele și conținutul. Aceste date pot fi utilizate pentru a dezvolta sau îmbunătăți experiența utilizatorilor, sistemele și software-ul.

Dând clic pe ‘Sunt de acord’, permiteți utilizarea cookie-urilor menționate, a identificatorilor de dispozitiv, balizelor web sau altor tehnologii similare. Setările pot fi modificate din browser-ul dispozitivului dumneavoastră.

În anumite scopuri, interesele legitime pot prima asupra consimțământului. Puteți citi mai multe informații în acest sens în Politica privind Confidențialitatea Datelor și Cookie.